Temperature
7 6 5 5 5 4 4 4 4 4 3 3 3 2 2 2 2 2 1 1 1 1 1 1 1 1 1 1 2 3 2 2 2 2 3 3 4 4 4 4 4 4 4
6 5 5 4 4 4 4 3 3 3 3 3 3 3 2 2 2 1 1 1 1 1 1 1 1 1 1 1 2 2 2 2 2 2 3 3 3 3 4 4 4 4 4
5 5 5 4 4 4 4 3 3 3 3 3 3 3 2 2 2 1 1 1 1 1 1 1 1 1 1 1 2 2 2 2 2 2 2 3 3 3 3 3 3 3 3
5 4 4 4 4 4 4 4 3 3 3 3 3 3 3 2 2 1 1 1 0 1 1 1 1 1 2 2 2 2 2 2 2 2 2 2 2 2 2 3 3 3 3
4 4 4 4 4 4 4 4 4 4 3 3 3 3 3 3 2 2 1 1 0 0 0 1 1 1 1 1 1 1 1 1 1 1 1 1 1 2 2 3 3 3 2
4 4 4 4 4 4 4 4 4 4 4 3 3 3 3 3 2 2 1 0 -0 -0 -0 -0 -0 1 1 1 1 2 1 1 1 1 1 1 1 2 2 3 3 3 2
4 5 5 5 5 5 5 5 4 4 4 3 3 3 3 3 2 1 0 -0 -1 -1 -1 -1 -1 1 1 2 2 2 2 1 1 2 1 1 2 2 2 3 3 3 2
5 5 5 5 5 5 5 5 5 5 4 3 3 3 2 1 1 -0 -1 -1 -1 -1 -1 -1 -1 0 1 1 0 1 1 2 3 3 4 3 2 3 3 3 3 2 2
5 5 5 6 6 6 6 6 5 5 4 3 3 2 1 0 -1 -2 -2 -2 -2 -2 -2 -1 -1 -0 0 0 0 -0 1 2 3 3 4 3 3 3 3 3 3 2 2
5 6 6 6 6 6 6 6 6 5 4 3 2 1 -0 -2 -2 -2 -3 -3 -3 -3 -2 -1 -1 -0 -0 -0 -1 -1 0 2 3 3 3 3 3 3 3 3 3 2 2
6 6 6 6 6 6 6 5 5 4 3 3 1 0 -1 -2 -3 -3 -4 -4 -4 -3 -2 -1 -0 -0 -0 -0 -1 -1 1 1 2 3 3 3 3 3 3 3 2 2 2
6 6 6 6 6 5 5 4 4 3 2 1 0 -1 -2 -3 -3 -4 -4 -4 -4 -3 -2 -1 -0 -0 -0 -0 -1 -0 1 1 2 2 3 3 2 2 2 2 2 1 1
6 6 6 5 5 4 4 3 2 2 1 -1 -2 -3 -3 -3 -4 -4 -4 -3 -2 -2 -1 -1 -1 -0 -1 -1 -1 -0 1 1 1 2 2 2 2 1 1 1 1 0 -0
6 5 5 5 4 3 3 2 1 -0 -1 -2 -3 -3 -3 -3 -4 -4 -2 -2 -2 -1 -1 -1 -1 -1 -1 -1 -1 -1 -0 0 1 1 1 1 1 1 0 -0 -1 -1 -2
5 5 5 4 3 2 1 0 -1 -2 -2 -3 -3 -3 -3 -3 -4 -3 -3 -2 -2 -1 -1 -0 -1 -1 -1 -2 -2 -1 -1 0 0 1 1 0 0 -0 -1 -1 -2 -2 -2
5 5 4 3 2 1 -0 -1 -2 -2 -3 -3 -3 -3 -3 -3 -3 -3 -2 -2 -1 -0 -0 -1 -1 -1 -1 -2 -2 -2 -1 -0 -0 0 0 0 -1 -1 -2 -2 -2 -2 -2
5 4 3 3 2 0 -1 -2 -2 -2 -2 -3 -3 -2 -2 -3 -2 -2 -1 -1 -1 -0 -0 -1 -1 -1 -1 -2 -2 -2 -1 -1 -0 -0 -0 -1 -1 -2 -2 -2 -2 -2 -1
4 3 3 2 1 -0 -2 -3 -3 -3 -2 -3 -3 -2 -2 -2 -2 -2 -1 -1 -1 -0 -0 -1 -0 -1 -1 -2 -2 -2 -1 -1 -1 -0 -0 -1 -1 -1 -2 -2 -2 -1 -1
4 3 3 2 1 -1 -2 -2 -2 -2 -2 -3 -2 -2 -2 -2 -2 -2 -2 -1 -1 -1 -0 -0 -0 -0 -1 -1 -1 -1 -1 -1 -1 -0 -0 -1 -1 -1 -1 -1 -1 -1 -1
4 3 2 2 0 -1 -1 -1 -2 -2 -2 -2 -2 -2 -2 -2 -2 -2 -2 -1 -1 -1 -1 -0 0 0 -0 -0 -1 -1 -1 -1 -1 -1 -1 -1 -1 -1 -1 -1 -1 -0 -0
4 3 2 1 0 -1 -1 -1 -1 -1 -2 -2 -2 -2 -2 -2 -2 -2 -1 -1 -1 -1 -1 -0 0 0 0 -0 -0 -0 -1 -1 -1 -1 -1 -1 -1 -1 -1 -0 -0 -0 -0
3 2 2 1 0 -1 -1 -1 -1 -2 -2 -2 -1 -1 -1 -1 -1 -1 -1 -1 -1 -1 -0 -0 0 0 0 0 -0 -0 -0 -1 -0 -1 -1 -1 -1 -1 -0 0 0 0 0
3 2 1 1 -0 -1 -2 -2 -2 -2 -2 -2 -2 -2 -2 -1 -1 -1 -1 -1 -1 -1 -0 -0 -0 0 0 0 0 0 -0 -0 -1 -1 -0 -1 -1 -1 -0 0 1 1 1
3 2 1 1 -0 -1 -1 -2 -2 -2 -2 -2 -2 -2 -2 -2 -2 -2 -1 -1 -1 -1 -1 -1 -0 -0 0 1 1 0 -0 -0 -0 -0 -1 -1 -1 -1 -0 -0 0 1 1
3 2 1 1 -0 -1 -1 -2 -2 -2 -2 -3 -3 -2 -2 -2 -2 -2 -2 -1 -1 -1 -1 -1 -1 -0 0 0 0 0 0 -0 -0 -0 -0 -1 -1 -1 -0 1 1 1 1
2 2 1 1 0 -0 -1 -1 -1 -2 -2 -2 -2 -3 -2 -2 -2 -3 -2 -2 -1 -1 -1 -1 -0 -0 -0 0 0 0 0 0 -0 -0 -0 -0 -0 0 1 1 1 1 1
Wind_Speed
7 5 5 5 4 3 3 5 6 6 5 4 4 4 4 4 3 3 5 6 8 9 11 10 11 11 9 8 8 8 8 7 11 9 8 7 6 8 8 6 3 4 4
6 4 4 3 3 4 5 6 5 6 6 4 4 5 2 3 3 4 6 7 9 11 12 12 13 11 11 9 8 9 8 8 9 10 8 6 7 8 6 4 2 3 1
5 4 3 4 4 5 5 4 3 4 5 5 6 6 5 7 6 5 6 8 10 11 12 12 13 12 12 10 9 9 9 9 8 8 8 6 4 5 2 1 2 2 3
3 3 3 5 4 5 4 4 5 5 6 7 7 7 8 8 7 5 6 8 10 11 12 12 13 11 12 10 8 9 9 8 8 8 10 8 7 6 3 3 3 2 3
4 5 5 6 5 5 5 6 6 4 5 8 8 8 9 7 6 6 6 9 10 10 11 12 12 14 18 11 10 9 9 9 9 10 10 9 7 6 4 3 3 3 2
5 5 5 5 5 5 7 7 6 5 6 7 9 9 9 7 7 6 9 9 10 10 12 11 11 15 13 16 18 18 18 16 14 13 11 9 8 6 3 4 5 3 1
3 4 4 5 6 8 9 8 7 6 5 8 9 10 10 7 6 10 15 9 10 11 12 11 10 11 12 10 16 20 20 25 25 18 15 13 8 6 5 5 4 3 2
4 6 7 7 8 10 9 9 9 7 8 7 8 9 6 5 8 11 17 11 11 12 12 10 10 10 10 14 14 13 14 17 18 14 12 11 7 5 6 6 7 8 6
6 8 9 9 10 11 11 10 8 7 5 5 5 7 3 2 8 14 14 9 10 12 12 11 10 9 15 17 13 13 15 14 12 6 6 10 9 13 13 11 9 7 4
7 8 9 8 8 9 10 7 5 3 4 6 8 7 5 4 7 13 15 9 9 10 11 12 12 13 16 17 12 12 13 12 7 7 11 11 10 11 11 7 7 7 5
7 8 9 9 7 6 7 6 8 8 7 8 6 6 6 6 9 14 18 12 11 10 10 10 10 15 17 14 12 10 10 6 5 7 10 10 9 9 9 8 6 4 4
7 8 9 8 10 10 11 10 9 8 7 6 6 7 7 7 10 14 18 17 16 11 10 10 11 15 15 12 11 13 7 4 4 6 7 7 8 8 8 8 8 7 8
8 8 7 10 10 9 9 8 6 6 5 5 5 7 8 8 8 14 16 17 18 13 11 14 14 14 11 8 13 14 6 4 5 6 7 8 8 9 9 9 11 11 10
8 7 8 10 8 7 5 5 5 5 6 6 6 7 8 9 9 10 10 11 13 12 11 12 12 10 8 9 10 9 5 5 6 7 8 8 9 8 8 8 9 10 11
7 8 9 7 6 5 4 3 3 2 3 5 7 6 6 8 11 14 13 11 10 12 11 7 7 7 7 7 7 7 6 6 7 8 8 8 8 9 9 8 8 9 11
8 8 7 5 4 4 4 4 6 7 9 9 10 8 6 9 14 17 18 19 17 16 8 7 7 7 7 7 7 7 7 7 7 8 8 8 9 9 9 9 8 9 9
8 7 6 6 5 4 4 5 5 8 9 10 13 13 13 12 15 18 19 17 14 11 8 9 9 8 6 6 6 7 7 7 7 7 7 8 9 9 10 9 8 8 8
9 9 7 5 4 5 5 5 5 6 7 7 10 13 15 16 16 17 18 13 11 11 10 10 10 10 8 7 6 6 6 6 6 8 9 9 9 8 8 8 7 7 7
9 7 6 5 5 6 6 7 7 7 7 7 9 11 13 14 13 14 14 10 9 10 10 10 10 9 8 6 4 4 6 7 7 8 8 8 6 6 7 7 6 8 7
9 10 7 5 5 6 6 7 8 8 8 8 8 9 10 10 9 10 10 10 10 9 10 9 9 8 7 6 5 6 7 7 6 6 7 6 5 6 6 5 5 7 6
8 8 8 6 5 5 5 7 8 8 8 8 8 10 13 9 8 10 10 10 10 10 9 9 8 8 7 6 5 5 6 6 5 5 5 5 5 4 4 3 5 7 8
7 6 6 5 4 5 5 5 7 7 9 10 9 10 13 10 9 9 10 11 10 9 9 8 7 7 6 5 4 5 6 5 4 5 5 5 5 4 4 4 6 8 10
7 7 6 5 5 5 5 4 5 6 7 8 10 10 10 10 9 10 10 11 11 11 11 10 10 10 9 9 8 5 4 4 4 5 5 4 4 5 5 5 7 8 9
8 8 7 6 5 5 5 5 6 7 8 8 8 9 10 10 10 10 11 10 10 10 13 13 12 12 12 12 10 8 5 4 6 7 4 4 5 6 5 4 4 7 8
8 8 7 6 5 5 5 6 6 7 7 7 8 8 9 10 11 11 11 10 9 10 12 15 15 16 16 17 16 13 5 2 7 7 4 4 5 5 4 3 4 7 8
8 8 7 6 5 4 4 5 6 7 8 8 8 9 9 9 10 10 10 10 10 10 13 15 18 19 19 18 20 18 12 6 8 7 5 3 3 3 2 1 3 6 8
Wind_Direction
73 64 55 48 42 24 346 338 334 330 326 309 308 320 325 338 360 340 321 315 313 307 306 298 290 286 281 280 275 275 267 261 280 287 287 288 286 289 294 303 269 139 146
84 61 30 13 355 340 333 337 348 342 325 304 311 305 248 227 254 277 300 310 310 306 304 296 286 283 280 279 275 272 263 260 267 286 298 294 284 277 286 295 156 138 118
73 50 359 344 350 340 341 333 326 320 320 340 337 301 241 243 254 270 305 308 308 303 299 292 289 282 279 275 267 270 269 268 267 275 285 285 279 266 250 157 105 55 14
42 17 327 317 329 320 327 298 292 312 329 335 322 290 264 260 264 276 296 300 301 303 303 294 287 282 281 281 284 283 285 284 281 277 280 280 282 276 236 186 149 74 21
356 338 317 297 305 313 298 278 283 318 321 308 303 294 282 275 247 253 300 300 298 299 303 304 301 306 309 315 309 300 299 295 290 282 277 272 263 258 234 165 135 128 43
324 313 316 317 319 299 274 270 288 310 299 300 296 290 294 289 260 331 334 311 303 304 302 299 304 310 305 315 314 311 303 293 285 275 269 262 255 244 201 153 141 155 112
272 281 300 306 307 283 270 278 280 275 269 276 286 302 308 321 21 0 339 330 313 303 296 294 306 309 315 315 317 311 298 288 283 273 254 245 239 219 169 144 131 97 79
240 267 272 271 267 266 273 278 267 256 254 275 308 337 11 44 21 348 342 331 307 298 296 296 296 301 317 323 315 302 297 293 287 274 237 216 206 174 150 126 112 103 79
269 276 275 265 262 267 270 272 273 265 289 342 12 24 30 349 357 348 334 313 306 304 303 301 306 320 321 321 317 312 308 305 303 301 151 146 143 131 126 119 122 121 92
283 291 293 285 275 272 278 296 287 41 53 44 36 13 342 316 324 334 332 321 312 310 310 311 314 318 319 322 321 314 309 312 340 59 80 85 98 105 100 103 130 130 119
308 321 326 334 342 7 22 23 54 60 52 39 14 341 334 330 326 331 329 329 321 316 313 314 312 315 319 321 324 311 300 304 12 71 87 85 80 75 76 77 77 104 111
338 350 354 22 56 70 69 57 53 48 41 17 353 340 328 320 327 328 327 327 324 319 314 312 316 320 325 335 332 326 337 43 54 75 85 85 86 85 83 82 79 77 83
9 13 30 64 63 64 66 58 50 43 33 6 350 338 330 327 328 330 332 331 327 328 321 325 332 331 340 354 339 341 8 57 69 82 85 83 83 90 93 91 87 86 82
26 33 62 78 76 59 56 59 58 42 21 355 346 338 336 343 341 339 337 332 333 334 331 332 337 338 353 11 357 349 21 72 77 85 90 92 90 89 85 94 100 98 98
48 60 71 88 85 76 58 41 40 15 48 20 1 342 337 349 343 339 342 344 343 341 337 340 351 355 8 23 11 8 26 56 76 87 95 96 93 90 82 88 95 98 104
66 67 82 95 79 52 40 2 342 341 347 30 15 9 350 345 344 346 350 346 343 342 346 357 356 356 17 29 23 26 36 51 71 92 96 92 98 94 93 91 90 98 102
86 87 78 70 55 36 32 27 2 349 4 35 16 3 360 355 357 354 350 343 344 353 8 1 357 355 24 44 40 42 47 47 72 87 97 99 103 102 105 105 101 102 101
90 86 79 72 56 42 29 16 13 6 3 4 5 359 358 357 356 353 350 353 4 7 5 359 356 2 27 61 57 57 56 60 54 74 91 95 104 112 113 112 110 102 102
102 95 87 74 57 45 29 30 24 16 10 2 1 0 356 355 354 354 356 4 2 356 353 353 355 4 24 45 60 54 57 71 64 69 83 95 102 91 108 125 117 114 113
104 104 96 76 56 40 35 38 26 17 13 11 10 3 354 359 4 357 354 354 357 355 350 349 350 355 4 16 40 51 61 72 68 66 81 93 84 86 98 102 102 111 108
113 106 95 80 61 50 38 40 33 24 20 15 12 3 358 5 359 352 349 351 352 351 350 347 346 351 1 12 34 48 57 65 65 63 70 80 87 87 80 90 100 107 111
116 113 104 92 72 59 51 43 40 29 24 19 12 5 2 8 4 356 353 352 352 351 351 350 353 0 3 11 28 49 61 64 59 68 70 70 80 76 68 72 94 109 111
109 113 111 98 73 56 45 34 33 24 21 25 20 15 12 11 7 3 359 356 358 1 4 9 11 12 13 13 16 26 56 76 73 82 86 82 66 67 71 70 97 112 119
98 106 113 108 85 60 40 24 24 33 32 29 27 23 16 12 11 8 5 1 3 6 12 13 9 4 5 10 10 16 29 70 90 91 69 77 77 71 78 77 99 125 129
94 92 94 102 100 84 63 46 29 20 18 17 25 26 22 18 15 12 8 5 6 8 10 12 9 5 6 11 10 8 21 115 111 115 87 59 65 66 65 64 100 122 128
93 91 87 85 86 78 62 48 36 28 26 23 21 23 22 20 16 12 9 8 9 10 9 9 7 9 8 9 6 13 38 109 139 132 117 69 43 54 96 177 121 124 127
Height
1526 1524 1523 1521 1518 1516 1514 1512 1511 1508 1506 1504 1500 1497 1495 1493 1489 1485 1480 1476 1472 1468 1464 1460 1456 1454 1451 1449 1447 1445 1444 1442 1437 1432 1430 1428 1425 1424 1422 1420 1417 1414 1412
1524 1524 1522 1520 1517 1515 1512 1509 1507 1507 1504 1501 1497 1495 1492 1490 1487 1482 1478 1473 1468 1463 1458 1455 1452 1450 1447 1444 1442 1440 1439 1437 1433 1428 1424 1423 1421 1419 1416 1414 1412 1410 1408
1522 1521 1520 1517 1514 1512 1510 1508 1506 1504 1502 1498 1495 1493 1490 1487 1484 1480 1475 1470 1466 1461 1455 1451 1448 1446 1442 1440 1438 1435 1433 1430 1427 1423 1418 1417 1415 1413 1411 1410 1407 1406 1403
1520 1518 1517 1514 1512 1511 1509 1507 1505 1502 1499 1496 1493 1491 1488 1484 1480 1476 1471 1467 1462 1457 1453 1448 1445 1441 1438 1435 1432 1429 1426 1423 1420 1416 1412 1410 1409 1407 1406 1405 1404 1403 1401
1518 1516 1514 1513 1511 1509 1507 1506 1503 1500 1497 1494 1491 1488 1484 1480 1476 1472 1467 1463 1458 1452 1448 1444 1441 1438 1435 1431 1427 1424 1420 1416 1412 1408 1404 1403 1401 1401 1400 1400 1400 1400 1399
1518 1515 1514 1512 1510 1508 1506 1504 1501 1499 1496 1492 1489 1485 1482 1477 1473 1468 1463 1458 1453 1447 1442 1438 1435 1432 1429 1425 1421 1417 1414 1409 1403 1399 1395 1394 1393 1394 1395 1396 1396 1397 1398
1518 1516 1514 1512 1510 1507 1505 1502 1499 1496 1493 1490 1486 1483 1478 1473 1467 1463 1458 1453 1447 1441 1436 1433 1429 1427 1423 1418 1414 1410 1404 1399 1394 1390 1385 1385 1387 1389 1392 1392 1394 1396 1396
1518 1516 1513 1511 1509 1506 1503 1499 1497 1493 1490 1487 1483 1478 1474 1469 1464 1459 1453 1446 1440 1434 1430 1428 1425 1421 1417 1413 1407 1401 1394 1389 1384 1381 1378 1379 1383 1387 1389 1391 1392 1394 1396
1516 1513 1511 1509 1506 1503 1500 1496 1494 1490 1488 1484 1479 1475 1471 1466 1460 1454 1446 1439 1432 1428 1425 1423 1420 1416 1412 1407 1401 1395 1388 1384 1380 1377 1376 1378 1383 1386 1388 1390 1391 1393 1395
1514 1512 1510 1507 1504 1501 1497 1493 1490 1487 1484 1481 1477 1473 1467 1462 1456 1449 1441 1434 1428 1424 1422 1420 1416 1412 1407 1402 1397 1391 1386 1383 1380 1378 1379 1382 1384 1386 1388 1391 1392 1394 1394
1513 1511 1509 1505 1502 1498 1495 1492 1488 1485 1482 1479 1476 1470 1464 1458 1452 1445 1438 1432 1427 1422 1419 1416 1412 1407 1403 1398 1393 1388 1385 1383 1382 1381 1382 1383 1385 1387 1390 1392 1393 1395 1396
1513 1511 1507 1504 1501 1499 1496 1492 1489 1485 1481 1476 1471 1466 1461 1455 1449 1442 1435 1430 1425 1421 1417 1413 1409 1405 1400 1395 1391 1387 1385 1384 1383 1383 1384 1386 1388 1390 1393 1394 1396 1397 1398
1513 1511 1507 1504 1502 1499 1495 1492 1487 1483 1478 1473 1468 1463 1459 1453 1446 1439 1433 1428 1424 1421 1416 1412 1408 1403 1398 1393 1390 1388 1387 1386 1385 1386 1387 1390 1391 1394 1395 1397 1399 1400 1402
1513 1510 1507 1505 1502 1498 1495 1490 1486 1481 1476 1472 1467 1463 1458 1452 1445 1438 1433 1428 1424 1420 1416 1412 1408 1404 1398 1394 1391 1390 1389 1388 1389 1390 1391 1394 1396 1398 1400 1402 1403 1405 1407
1513 1511 1508 1506 1502 1499 1494 1490 1485 1481 1477 1473 1469 1463 1458 1453 1448 1442 1436 1430 1425 1421 1418 1414 1409 1404 1399 1396 1394 1392 1392 1392 1393 1394 1396 1398 1400 1402 1404 1407 1409 1411 1414
1514 1512 1509 1506 1503 1498 1493 1490 1486 1483 1479 1475 1470 1465 1460 1456 1450 1445 1439 1434 1429 1425 1421 1416 1412 1407 1403 1400 1398 1396 1396 1397 1398 1400 1403 1405 1406 1408 1410 1413 1416 1419 1421
1516 1514 1511 1507 1503 1498 1493 1489 1486 1484 1481 1477 1471 1466 1462 1457 1453 1448 1443 1438 1433 1429 1425 1421 1417 1413 1409 1405 1402 1401 1402 1403 1405 1407 1409 1412 1413 1414 1416 1419 1422 1426 1429
1517 1515 1512 1508 1503 1498 1494 1490 1487 1485 1481 1477 1472 1467 1463 1459 1455 1451 1447 1442 1437 1433 1429 1426 1423 1419 1414 1411 1409 1409 1409 1410 1411 1414 1416 1418 1419 1421 1423 1426 1429 1432 1435
1519 1516 1513 1509 1504 1500 1497 1493 1490 1487 1483 1479 1474 1470 1466 1463 1459 1455 1450 1445 1441 1438 1434 1431 1428 1426 1422 1419 1418 1417 1417 1417 1419 1421 1422 1424 1426 1428 1430 1433 1436 1439 1442
1520 1518 1515 1511 1507 1504 1500 1497 1493 1489 1485 1481 1477 1473 1469 1466 1461 1457 1454 1449 1446 1443 1439 1436 1434 1432 1430 1427 1426 1425 1425 1425 1426 1428 1429 1430 1432 1434 1437 1439 1442 1445 1447
1522 1520 1517 1513 1510 1507 1504 1501 1497 1493 1488 1484 1481 1477 1474 1470 1466 1462 1458 1454 1450 1447 1444 1442 1439 1437 1436 1434 1434 1433 1433 1432 1433 1435 1435 1436 1438 1440 1443 1445 1447 1449 1452
1523 1521 1519 1516 1514 1511 1508 1505 1501 1497 1494 1489 1485 1482 1478 1474 1471 1467 1463 1459 1456 1452 1450 1447 1445 1443 1442 1440 1440 1440 1439 1439 1439 1440 1441 1441 1443 1446 1447 1449 1451 1453 1456
1525 1523 1522 1519 1517 1515 1511 1508 1505 1502 1498 1494 1490 1486 1483 1479 1476 1472 1468 1465 1462 1459 1456 1453 1451 1448 1447 1446 1445 1444 1444 1444 1444 1445 1446 1447 1449 1451 1453 1454 1456 1459 1461
1527 1525 1524 1523 1521 1519 1516 1512 1509 1506 1502 1499 1495 1492 1488 1484 1481 1478 1474 1470 1467 1465 1462 1459 1456 1453 1451 1450 1449 1449 1448 1448 1448 1449 1450 1452 1454 1456 1458 1460 1462 1464 1466
1531 1529 1528 1526 1525 1522 1519 1516 1513 1510 1506 1503 1499 1496 1493 1490 1486 1483 1479 1476 1473 1471 1468 1465 1461 1459 1456 1454 1454 1453 1451 1451 1451 1452 1454 1456 1458 1460 1462 1465 1467 1469 1471
1534 1532 1531 1529 1527 1525 1523 1520 1517 1513 1510 1507 1504 1500 1497 1494 1491 1487 1484 1481 1479 1476 1473 1470 1467 1464 1461 1459 1459 1458 1457 1456 1456 1457 1459 1461 1463 1465 1466 1468 1471 1473 1475